This demonstration page uses our WeatherBlox Daily Observations layout. Learn more.

Left ArrowRight Arrow

39.29038, -76.61219

Hourly Observations for June 24, 2020

Temp ( °F °C ) Dew Point ( °F °C ) Humidity (%) Winds ( mph kmh ) Pressure ( in mb ) Visibility ( mi km ) Precip ( " mm )
12:54 am 00:54 Mostly Cloudy 75 23.9 69 20.6 82 82 WSW 5 7 29.67 1005 10 16 0.00 0.00
1:54 am 01:54 Mostly Cloudy 74 23.3 69 20.6 85 85 Calm 29.66 1005 10 16 0.00 0.00
2:54 am 02:54 Mostly Cloudy 74 23.3 69 20.6 85 85 W 7 11 29.67 1005 10 16 0.00 0.00
3:54 am 03:54 Mostly Cloudy 74 23.3 68 20 82 82 W 9 15 29.69 1005 10 16 0.00 0.00
4:54 am 04:54 Mostly Cloudy 74 23.3 66 18.9 76 76 W 13 20 29.70 1006 10 16 0.00 0.00
5:54 am 05:54 Mostly Cloudy 72 22.2 65 18.3 79 79 WNW 9 15 29.73 1007 10 16 0.00 0.00
6:54 am 06:54 Partly Cloudy 73 22.8 65 18.3 76 76 W 8 13 29.77 1008 10 16 0.00 0.00
7:54 am 07:54 Partly Cloudy 72 22.2 63 17.2 73 73 W 9 15 29.79 1009 10 16 0.00 0.00
8:54 am 08:54 Mostly Cloudy 75 23.9 58 14.4 55 55 NW 12 19 29.82 1010 10 16 0.00 0.00
9:54 am 09:54 Mostly Cloudy 76 24.4 56 13.3 50 50 WNW 16 26 29.83 1010 10 16 0.00 0.00
10:54 am 10:54 Partly Cloudy 78 25.6 57 13.9 48 48 W 12 19 29.83 1010 10 16 0.00 0.00
11:54 am 11:54 Partly Cloudy 80 26.7 57 13.9 45 45 W 10 17 29.83 1010 10 16 0.00 0.00
12:54 pm 12:54 Partly Cloudy 81 27.2 56 13.3 42 42 W 13 20 29.81 1010 10 16 0.00 0.00
1:54 pm 13:54 Partly Cloudy 82 27.8 57 13.9 42 42 W 10 17 29.81 1010 10 16 0.00 0.00
2:54 pm 14:54 Partly Cloudy 83 28.3 57 13.9 41 41 W 10 17 29.82 1010 10 16 0.00 0.00
3:54 pm 15:54 Partly Cloudy 84 28.9 55 12.8 37 37 W 12 19 29.82 1010 10 16 0.00 0.00
4:54 pm 16:54 Partly Cloudy 84 28.9 54 12.2 36 36 WSW 12 19 29.82 1010 10 16 0.00 0.00
5:54 pm 17:54 Mostly Cloudy 84 28.9 55 12.8 37 37 W 9 15 29.80 1009 10 16 0.00 0.00
6:54 pm 18:54 Mostly Cloudy 84 28.9 54 12.2 36 36 WSW 13 20 29.81 1010 10 16 0.00 0.00
7:54 pm 19:54 Partly Cloudy 82 27.8 55 12.8 40 40 W 7 11 29.82 1010 10 16 0.00 0.00
8:54 pm 20:54 Partly Cloudy 80 26.7 55 12.8 42 42 SW 5 7 29.83 1010 10 16 0.00 0.00
9:54 pm 21:54 Mostly Cloudy 77 25 56 13.3 48 48 SSW 5 7 29.85 1011 10 16 0.00 0.00
10:54 pm 22:54 Mostly Cloudy 75 23.9 59 15 58 58 SW 3 6 29.86 1011 10 16 0.00 0.00
11:54 pm 23:54 Mostly Cloudy 76 24.4 59 15 56 56 Calm 29.88 1012 10 16 0.00 0.00

Powered by AerisWeather